Wind_Speed
83 83 82 81 80 78 75 73 71 70 69 68 67 67 66 66 66 66 66 65 63 58 54 55 55 53 56 60 59 57 58 60 60 59 57 55 55 54 54 53 50 47 43 42 42 41 38 36 34 31 30 31 34 36 35 32 32 35 32 27 28 31 32 31 31 29 23 22 22 22 20 17 17 16 15 14 13 12 12 10 8 9 9 11 12 13 15 16
83 83 83 83 81 80 78 76 73 71 70 68 67 66 65 65 65 64 65 66 67 64 57 55 56 54 53 58 60 57 57 59 60 58 56 56 56 56 55 54 51 49 46 43 42 41 39 37 36 34 32 31 33 36 37 35 33 35 37 34 31 31 34 33 30 27 24 23 23 23 21 18 17 17 16 15 14 14 12 9 9 9 9 12 13 13 15 16
83 83 83 83 83 82 80 78 76 74 72 70 68 66 65 64 64 64 64 65 67 68 63 55 55 57 54 54 58 59 58 59 59 56 55 57 56 56 56 54 52 50 48 44 43 43 41 38 37 36 34 32 33 35 37 37 34 34 37 37 35 34 35 34 30 26 25 25 24 24 22 18 18 19 18 16 16 14 11 10 10 10 10 13 14 13 15 16
83 83 83 83 83 83 82 80 78 76 74 72 69 67 65 64 63 63 63 64 65 68 68 60 54 56 56 54 54 58 59 60 57 53 54 57 56 56 57 55 53 52 48 44 43 45 41 38 38 37 36 34 33 35 37 36 35 34 35 36 37 36 35 33 30 27 25 26 25 25 22 21 22 21 19 17 16 14 13 12 11 11 12 14 14 13 14 15
82 82 82 82 83 83 83 82 80 78 76 74 71 69 67 65 63 62 62 62 64 65 68 67 58 54 57 56 53 54 59 61 57 52 53 57 57 57 57 56 55 52 49 45 44 45 40 38 39 39 37 35 33 34 34 35 34 33 33 34 37 37 33 29 29 27 26 26 25 25 25 25 25 22 19 18 17 15 15 14 12 13 13 13 14 13 14 15
82 82 82 82 82 82 82 82 81 79 77 75 73 71 69 66 64 62 62 62 63 63 66 70 66 58 55 57 55 54 58 62 59 53 54 56 57 58 57 57 56 52 51 48 47 46 41 39 40 41 39 35 33 32 33 35 35 33 33 34 35 37 32 27 28 28 27 27 27 27 27 28 27 24 21 19 18 17 17 16 13 13 14 13 14 13 13 14
83 82 82 81 81 81 82 81 81 80 79 77 75 73 70 68 65 63 62 61 62 63 63 67 71 66 57 56 59 58 58 61 60 55 56 57 56 58 58 58 57 54 54 52 49 47 44 41 42 42 39 36 33 32 33 36 36 35 35 36 36 36 33 27 28 30 29 28 28 29 29 28 28 26 23 21 20 18 17 17 14 14 14 14 14 13 13 14
84 83 83 82 81 81 81 81 81 81 79 78 76 74 72 70 67 64 63 62 62 63 63 65 71 73 65 59 60 63 60 56 57 55 55 57 56 58 59 58 57 56 57 55 51 49 47 45 44 43 40 38 36 34 34 36 38 38 36 38 38 37 35 29 28 31 31 30 29 30 29 27 27 26 24 23 22 20 18 18 16 15 15 15 14 14 13 14
85 84 83 83 82 81 81 80 80 80 80 79 78 76 74 72 69 67 64 63 62 62 63 64 68 73 73 66 60 62 60 53 53 55 53 55 58 58 58 58 58 58 59 58 54 51 50 47 45 44 41 40 40 38 36 36 38 39 38 38 39 39 37 33 31 33 32 30 30 30 30 28 27 25 24 24 24 22 21 20 18 16 16 16 14 14 14 14
85 85 85 84 83 83 82 81 80 80 80 80 79 77 76 74 71 69 66 64 63 62 63 64 66 71 75 74 65 59 57 54 53 54 52 54 57 58 59 59 59 60 60 59 56 53 51 49 46 46 45 43 43 41 38 38 37 39 42 40 39 39 38 35 34 35 32 30 31 31 31 28 27 24 23 25 25 24 24 22 20 18 17 17 15 14 14 14
85 85 85 85 85 84 84 83 82 81 80 80 79 79 77 75 73 71 69 66 64 63 63 64 65 68 73 79 74 59 53 55 54 51 52 55 57 57 59 60 60 61 61 61 59 53 51 51 47 46 48 48 47 45 41 40 39 40 43 43 41 40 39 38 38 37 33 31 31 32 31 29 27 24 22 27 28 26 25 22 20 19 18 17 16 15 14 15
84 85 86 86 86 85 85 85 84 82 81 80 80 80 78 77 75 73 71 69 67 65 64 64 65 67 71 77 78 66 56 57 58 51 47 54 58 58 59 61 61 62 61 61 61 56 51 52 49 45 49 51 50 48 44 43 42 41 43 44 43 42 42 40 40 41 38 34 30 30 31 29 27 24 25 29 29 27 25 21 20 20 19 18 17 16 15 15
80 83 86 86 86 86 86 86 85 84 83 82 81 80 80 78 77 75 73 71 69 67 65 65 65 67 70 74 77 75 65 60 60 54 44 47 58 60 60 63 62 63 63 62 62 59 54 53 52 47 49 54 54 51 48 46 45 43 44 44 43 44 43 40 41 44 43 39 33 32 32 27 26 27 28 28 28 28 24 21 20 20 20 19 18 17 16 15
75 78 83 85 86 86 86 87 87 86 85 84 82 81 81 80 79 77 75 73 71 69 67 67 66 68 72 74 76 80 76 64 58 55 45 41 53 60 60 62 63 64 65 64 64 63 59 56 54 50 51 57 58 54 51 49 47 45 45 45 45 45 42 39 42 45 44 42 37 36 33 26 26 29 30 29 29 29 25 22 21 19 20 20 19 19 17 16
72 74 77 81 85 86 86 87 87 87 87 86 84 83 82 81 80 78 77 75 73 72 70 69 68 69 72 73 76 81 84 76 61 54 46 39 47 58 59 59 62 64 65 66 66 66 64 59 56 51 52 57 58 54 51 49 49 49 48 47 45 45 41 39 44 45 43 41 39 40 36 27 27 31 31 31 30 30 27 25 23 20 20 20 20 20 19 17
70 71 73 76 80 83 85 87 87 87 88 87 86 85 84 82 82 80 79 77 76 75 73 72 71 70 70 71 76 82 86 85 71 58 48 40 44 55 59 61 63 64 67 67 67 67 65 62 60 53 50 53 55 54 51 50 50 51 50 48 45 43 42 41 43 43 41 41 40 41 38 29 28 32 33 32 30 29 28 27 26 23 20 19 20 21 21 19
70 70 71 72 75 78 81 84 86 87 87 88 88 87 86 84 83 82 81 79 78 77 76 75 73 72 72 72 76 83 85 85 81 70 55 45 44 47 52 59 65 66 68 68 68 68 67 65 64 57 49 49 52 54 54 52 51 51 52 50 47 44 42 41 41 39 40 42 40 41 40 31 29 32 34 33 31 29 28 28 28 25 21 20 20 21 21 20
70 69 69 70 72 73 76 79 82 85 87 88 88 88 87 86 85 84 84 82 80 78 78 79 78 76 75 74 74 81 85 82 82 81 69 55 48 44 42 48 60 68 69 70 70 69 68 67 67 63 53 49 52 54 55 53 50 50 52 51 48 45 41 39 40 38 39 42 42 42 42 36 33 34 35 35 33 32 30 30 30 27 21 19 19 20 20 21
68 68 68 69 70 71 72 75 77 79 83 86 88 89 89 88 86 85 85 85 84 81 79 80 82 80 76 72 72 75 82 82 81 83 81 70 58 49 42 42 52 65 71 72 72 71 71 69 70 70 58 47 49 53 52 52 50 49 50 50 48 47 43 41 41 40 39 42 44 44 44 40 37 37 36 36 35 34 34 32 31 28 23 19 19 20 21 20
66 67 67 68 69 70 70 72 73 74 77 80 85 89 91 91 89 87 87 85 86 84 80 78 78 78 75 72 71 72 78 84 83 83 83 79 72 62 52 45 47 58 67 71 72 71 72 72 72 72 63 50 46 49 50 51 51 49 49 49 49 49 46 43 43 42 40 42 43 45 47 43 39 38 38 39 39 35 34 33 31 30 27 22 20 22 22 21
62 64 66 67 67 68 69 69 70 71 72 75 78 83 87 91 91 90 89 87 87 87 84 81 77 75 76 75 73 72 75 82 85 84 79 75 75 74 66 54 49 53 59 65 70 71 72 74 72 69 67 59 49 47 49 52 52 49 49 49 50 50 48 46 44 44 42 43 43 44 48 45 41 40 39 40 42 36 33 33 33 32 32 28 23 22 23 23
59 61 64 65 66 66 67 66 67 67 69 71 74 76 78 80 84 86 87 88 88 88 88 87 82 77 76 77 76 74 75 79 85 86 80 72 71 75 75 66 56 50 51 58 66 71 74 74 71 67 69 66 56 49 49 52 52 50 50 50 51 50 50 50 49 46 44 43 44 44 47 45 42 41 40 41 42 38 36 36 35 35 35 32 26 23 24 25
58 59 61 63 63 63 65 64 65 66 67 69 70 70 69 68 72 77 81 85 87 89 89 89 87 82 78 78 79 76 74 77 82 86 83 77 72 72 75 75 67 54 50 55 62 69 74 72 69 67 70 71 65 57 51 52 54 53 52 52 52 51 50 51 52 51 47 44 44 44 46 44 41 41 41 40 41 41 40 39 38 37 36 33 29 26 26 25
57 58 59 60 60 61 62 62 64 66 66 66 65 62 62 63 66 69 73 78 84 88 90 89 88 86 82 81 81 79 75 75 79 84 83 79 76 72 71 75 75 68 59 53 55 64 66 66 66 66 69 73 71 64 57 55 57 56 55 54 53 51 50 51 52 54 51 47 45 44 45 44 40 40 39 38 41 41 40 40 39 38 36 33 31 29 26 24
54 56 57 58 58 58 59 62 65 65 65 65 62 59 61 63 63 65 67 71 78 83 88 91 89 87 86 83 82 81 78 75 76 80 81 78 77 74 70 68 71 74 69 58 53 59 63 63 66 67 67 70 71 68 62 58 58 57 56 56 54 52 50 51 52 54 54 52 48 45 45 44 40 39 37 36 38 38 37 40 40 38 37 35 33 30 28 25
52 54 55 56 57 57 60 64 63 62 65 64 61 60 62 63 62 63 65 68 75 80 85 92 93 91 88 84 82 81 80 77 74 77 81 78 74 73 72 67 62 65 68 62 55 57 62 65 68 69 69 68 70 70 63 57 56 57 55 53 53 53 52 52 52 53 56 55 51 47 46 45 41 38 35 34 35 34 35 37 38 37 37 36 34 32 30 28
50 51 53 55 56 58 60 59 57 60 63 60 60 62 64 65 64 64 65 68 77 81 81 89 95 95 92 88 84 81 81 80 75 75 79 78 74 72 74 74 66 60 59 60 59 57 60 64 69 72 71 69 70 72 67 59 56 56 51 48 50 52 53 54 54 54 57 56 53 49 47 46 41 34 32 33 33 32 31 32 33 34 35 36 36 34 31 30
49 50 52 53 54 55 55 54 56 58 57 55 59 62 64 66 65 67 69 72 80 84 81 85 91 92 93 93 87 81 81 82 77 74 74 74 76 75 75 77 76 68 60 59 59 54 54 61 67 71 73 73 72 71 70 66 61 58 53 49 50 52 53 54 56 56 57 58 56 51 47 47 43 33 29 32 33 30 27 26 27 29 31 33 34 34 33 32
49 50 50 51 51 52 53 54 56 54 54 57 62 64 65 66 67 69 72 77 83 84 80 84 90 89 89 93 91 84 80 81 78 74 72 72 76 79 77 76 77 76 70 64 59 54 54 56 61 67 71 73 72 70 71 70 67 64 60 56 52 52 53 55 58 58 59 60 57 51 46 47 47 39 31 32 32 28 24 24 25 24 25 28 29 31 32 33
49 50 50 51 52 53 55 57 57 57 58 59 63 66 66 67 69 70 74 80 83 81 78 82 88 91 92 92 92 87 82 81 79 74 73 74 74 78 80 77 76 77 75 71 67 64 60 55 58 63 65 67 68 67 67 66 65 63 60 57 54 53 54 55 58 58 59 60 57 52 48 47 49 43 35 31 29 26 25 25 25 24 25 26 27 27 29 31
49 51 51 52 53 54 56 58 59 61 61 59 61 65 65 67 71 73 75 79 79 79 78 79 84 90 93 92 92 89 84 80 78 76 76 75 74 76 79 80 79 78 77 74 71 70 68 64 63 60 58 62 64 64 65 63 61 59 59 57 53 52 53 54 57 58 60 61 57 55 52 48 48 44 36 29 25 24 25 25 26 27 28 28 27 26 26 29
52 53 54 55 55 56 57 57 57 60 61 61 62 63 65 69 74 77 75 74 76 79 77 76 80 85 88 91 91 88 84 82 79 77 78 77 77 77 77 80 81 79 79 77 72 70 71 72 69 63 59 61 62 64 67 65 59 56 58 59 56 54 56 57 60 61 62 62 59 58 56 51 47 44 39 32 28 27 27 26 27 30 30 29 29 28 27 27
54 55 56 56 56 57 57 55 55 56 57 59 61 63 67 72 77 78 74 72 75 77 72 70 75 80 82 87 92 88 82 82 81 77 77 79 79 78 76 76 77 77 77 77 73 70 70 73 74 72 68 66 64 64 68 69 65 60 61 64 63 62 64 64 65 65 64 63 61 60 59 54 47 44 43 38 34 33 31 28 28 29 31 31 31 30 28 28
54 54 54 54 54 54 54 53 53 53 55 58 61 64 69 74 76 75 72 73 73 71 69 67 69 76 78 78 88 93 83 81 84 80 75 77 80 79 75 73 73 73 73 73 73 70 70 74 77 76 72 68 65 61 61 65 66 64 65 65 65 66 66 65 65 64 62 60 59 58 59 56 49 45 44 43 39 36 33 30 28 29 31 32 33 32 30 29
51 51 52 52 51 49 50 51 50 52 55 57 60 65 69 72 73 72 71 71 71 68 68 67 65 71 78 74 78 88 85 82 86 85 76 73 78 79 75 74 73 71 71 73 73 70 69 72 75 75 74 71 68 62 59 62 63 65 66 65 64 64 62 62 62 62 60 59 59 60 60 58 52 48 46 46 43 37 33 32 30 30 31 32 33 33 33 32
46 47 48 48 45 43 46 49 50 51 54 56 59 62 64 66 68 70 69 66 68 68 67 69 68 67 75 78 75 79 85 85 88 90 79 67 71 76 74 75 74 72 72 69 67 67 67 67 68 70 73 72 70 66 64 64 64 66 69 71 70 66 62 62 63 64 64 64 64 63 62 59 56 52 48 46 44 38 33 32 32 32 32 33 33 34 34 33
43 43 43 42 42 43 45 48 49 51 53 55 58 59 59 61 64 68 68 64 64 66 66 70 71 68 72 79 78 77 85 90 92 94 84 66 66 74 73 74 75 74 73 69 63 60 60 61 64 66 68 68 66 64 63 64 65 66 68 69 69 67 64 62 62 64 65 67 67 65 63 60 57 54 50 46 45 39 33 31 32 33 33 33 34 34 33 32
43 42 41 40 42 44 44 45 46 50 53 55 56 58 59 60 64 67 67 63 61 60 63 70 71 69 72 77 79 77 83 93 95 97 91 72 64 71 72 71 72 72 72 72 69 65 59 59 63 66 68 68 68 66 64 64 65 66 66 65 65 65 65 64 63 64 65 66 67 66 64 62 59 55 50 46 44 40 35 31 31 33 34 33 34 35 34 33
44 44 44 43 42 43 44 44 44 47 51 55 56 59 59 58 62 66 64 63 62 54 51 61 67 69 72 76 77 76 81 92 96 98 97 79 63 67 69 65 65 67 67 68 69 69 66 63 64 66 68 71 72 71 70 66 63 63 64 66 67 66 64 64 63 62 63 65 66 65 65 63 59 56 52 48 45 41 38 35 32 32 33 33 33 33 34 33
45 46 47 46 45 45 47 48 47 46 47 51 55 58 58 57 59 64 63 61 64 58 47 48 55 62 70 75 77 76 79 89 94 95 97 84 66 63 63 56 56 60 61 62 63 64 65 64 63 65 68 72 75 75 72 68 65 63 62 65 70 71 70 67 64 63 64 65 66 68 68 64 60 57 54 50 45 40 41 40 36 32 32 33 33 33 33 33
50 50 50 49 47 46 49 53 53 50 47 48 53 55 57 59 58 60 60 59 62 63 56 51 50 53 61 71 77 78 78 85 92 93 95 90 74 63 57 54 53 54 55 58 60 61 61 62 63 65 69 71 73 72 68 67 66 64 63 63 65 70 73 72 70 69 68 68 69 70 70 67 63 59 55 50 42 39 41 41 37 34 33 34 35 34 34 34
52 52 51 52 51 46 48 53 54 53 51 49 51 53 54 57 59 58 55 53 57 61 60 58 55 51 54 63 73 79 80 83 88 92 95 94 82 64 54 55 57 56 55 55 56 57 60 62 63 66 68 69 70 70 68 67 66 64 65 65 62 64 68 69 70 70 68 67 67 68 70 68 63 59 55 49 42 39 40 41 39 37 35 35 37 37 36 34
49 49 50 52 53 48 47 52 54 53 54 53 51 52 52 53 56 58 53 48 52 57 58 58 53 50 53 58 66 76 80 81 85 89 92 96 90 70 52 53 59 61 62 60 55 54 59 64 67 66 67 69 71 71 69 67 67 66 67 66 65 64 64 63 64 65 66 67 65 67 70 68 64 60 55 50 46 42 41 42 41 40 38 38 38 38 37 35
48 49 50 52 53 50 48 50 52 53 55 55 51 49 51 51 51 54 53 51 51 52 55 55 47 43 48 54 62 71 77 81 83 86 90 94 95 81 57 49 56 62 66 68 63 59 59 64 69 70 69 72 74 74 74 73 70 67 65 65 65 63 62 62 60 61 66 68 67 70 70 67 66 64 59 54 52 47 43 42 42 42 42 40 37 36 36 35
50 50 50 51 51 51 50 49 50 51 53 55 52 46 45 49 50 51 51 53 54 51 54 55 47 39 39 46 56 65 73 80 82 83 89 93 96 91 70 53 52 58 63 67 68 63 61 64 70 73 74 76 77 76 76 73 69 66 62 61 62 61 61 62 60 63 66 65 67 71 70 67 68 67 64 61 58 52 45 41 42 44 44 41 38 35 34 35
49 50 50 51 50 49 49 47 47 48 50 53 54 48 44 45 50 52 51 53 55 54 55 54 44 38 38 40 49 60 67 76 81 81 85 91 96 96 80 58 52 55 57 60 64 63 62 64 68 71 73 72 72 72 72 70 69 67 62 60 60 62 63 62 62 65 63 61 66 68 65 66 67 67 67 65 63 59 48 40 42 45 43 42 40 39 38 37
45 46 46 48 50 49 47 45 43 43 46 49 51 48 45 43 45 49 52 54 55 55 56 55 45 37 36 37 45 56 61 68 78 82 83 87 93 96 83 61 51 54 56 56 58 59 61 62 63 67 70 69 69 71 73 74 70 64 60 61 63 64 65 66 66 64 61 62 67 63 60 63 65 65 68 66 64 61 49 41 44 45 43 43 43 43 43 42
41 42 41 42 45 46 46 45 42 40 41 43 44 42 40 39 41 44 49 54 57 58 58 58 51 42 37 34 37 47 55 60 69 78 84 86 88 92 84 64 51 53 57 57 56 57 60 60 59 61 66 69 71 70 71 73 71 64 60 62 64 66 67 66 64 61 59 62 61 55 55 60 60 59 61 61 60 58 49 45 48 48 46 46 46 47 48 46
39 40 40 39 38 39 40 41 41 41 40 40 40 38 36 36 38 40 43 48 54 58 59 60 57 52 46 40 34 36 44 53 61 71 81 85 86 89 85 69 55 52 55 56 56 57 58 58 56 57 60 65 69 69 69 71 72 70 65 62 63 65 65 64 61 57 57 58 54 50 53 56 54 53 54 55 58 59 53 50 52 53 51 49 48 49 50 47
38 38 38 39 38 36 36 37 38 39 39 40 39 38 37 38 38 38 39 40 44 49 55 57 59 58 56 54 49 39 37 43 50 61 73 81 84 86 86 77 63 55 53 54 57 58 57 56 54 54 56 60 63 65 67 68 70 70 67 64 63 64 64 63 61 57 55 55 50 49 54 54 53 52 51 52 56 59 58 54 54 56 54 49 47 47 47 44
38 37 37 37 38 38 37 37 37 37 37 38 37 37 37 38 38 37 37 37 36 38 42 47 51 55 57 60 61 55 45 39 40 47 59 72 79 83 87 85 76 65 56 54 57 58 56 55 54 53 55 57 58 60 64 66 66 68 68 65 64 65 65 63 59 55 54 52 49 50 54 51 49 49 49 49 51 54 55 54 52 54 52 46 44 44 43 42
38 38 37 36 36 37 38 37 37 37 37 37 37 36 35 34 34 33 33 34 34 34 36 39 42 46 51 56 59 60 58 52 46 45 49 58 68 77 84 86 80 71 61 56 57 58 56 54 53 53 54 54 54 57 61 64 69 73 72 67 64 63 62 60 57 54 53 52 51 53 52 46 44 46 45 45 47 49 50 50 49 50 50 45 42 41 42 43
Wind_Direction
222 222 223 223 223 223 223 222 222 222 223 223 223 224 224 224 224 223 221 217 211 214 220 224 225 226 229 228 227 227 226 225 224 222 221 222 223 223 223 224 225 227 227 224 225 225 223 224 226 224 221 218 216 217 222 226 225 227 228 230 232 234 238 238 238 239 232 224 227 229 229 231 235 238 239 240 240 240 241 241 241 240 242 246 243 236 235 231
221 221 222 222 223 222 222 222 222 222 222 222 223 223 223 223 223 222 221 219 213 211 214 220 224 222 225 228 227 226 225 225 225 223 222 223 223 223 224 224 225 227 228 226 225 226 225 225 226 225 223 220 217 217 219 222 226 228 229 231 236 237 236 238 239 238 233 229 231 232 229 231 237 238 238 239 239 238 238 243 246 242 242 245 243 239 240 237
221 221 221 222 222 222 222 222 222 222 222 222 222 222 223 223 223 222 221 220 216 213 213 216 222 223 224 228 229 228 227 227 225 224 223 224 223 223 225 225 225 227 228 226 225 227 226 225 227 227 225 222 218 217 217 219 223 227 229 231 235 237 235 237 238 236 234 232 234 235 231 231 237 236 234 235 238 237 234 239 244 238 235 243 242 237 241 240
221 221 221 221 221 222 222 222 222 222 222 221 221 221 222 222 222 222 221 221 219 216 214 214 218 223 224 225 227 228 228 228 225 221 222 223 223 223 225 226 227 227 228 228 227 227 227 227 228 230 227 225 221 217 217 218 222 226 228 230 231 232 232 235 238 238 236 234 235 237 233 232 236 236 234 235 237 235 233 235 240 236 229 238 243 237 240 241
222 221 221 221 221 221 222 222 222 222 222 222 221 221 221 221 222 222 221 220 219 217 215 214 215 219 222 222 224 226 227 227 223 218 220 222 222 222 223 225 227 227 229 230 230 227 226 228 228 228 228 226 224 220 219 220 223 227 228 228 227 227 230 235 238 238 238 237 237 236 233 233 236 237 237 238 236 233 235 234 235 240 235 237 245 243 241 242
222 222 221 221 221 221 221 222 222 222 222 222 222 221 220 220 221 221 220 220 219 218 216 215 215 215 217 219 221 224 225 226 223 218 220 221 220 222 222 224 225 226 228 229 231 227 222 228 231 229 228 227 227 225 223 223 223 227 228 227 225 227 232 237 236 236 236 236 236 235 232 233 236 238 238 240 238 232 235 234 228 238 242 239 245 247 246 245
221 222 222 221 221 221 221 222 222 222 222 222 222 222 221 220 220 220 220 219 219 218 216 215 216 216 214 214 218 223 224 225 222 218 221 221 220 222 221 222 224 224 226 227 230 228 220 225 233 233 231 229 228 227 226 225 224 224 226 225 224 225 230 237 236 234 233 233 234 235 234 234 237 239 239 242 241 235 238 239 230 231 240 242 245 247 249 250
220 221 221 222 222 222 222 221 222 222 222 223 222 222 222 221 220 220 220 219 218 218 216 214 215 217 217 213 214 221 224 224 222 217 219 221 220 221 221 221 223 223 225 226 228 228 221 220 229 232 233 233 231 228 227 226 224 224 224 225 226 226 229 236 238 235 233 232 233 236 236 235 238 240 241 243 244 240 241 243 237 232 238 242 244 247 250 252
220 220 220 221 221 222 222 222 222 222 222 223 223 223 222 222 221 221 220 219 219 218 216 214 214 216 219 216 212 217 222 224 225 220 217 221 222 221 221 221 222 223 224 226 227 228 222 219 225 231 232 233 232 229 228 228 227 226 225 226 228 229 231 235 236 235 235 233 232 235 237 237 239 241 243 247 246 242 241 242 240 235 239 242 243 248 252 254
221 220 220 220 221 221 222 222 222 222 222 223 223 223 223 223 222 221 221 220 219 218 216 215 214 215 218 220 217 213 217 221 225 224 220 223 224 221 221 221 221 222 223 225 228 229 224 219 223 230 231 233 235 232 230 229 228 227 226 225 227 231 234 234 233 233 235 237 235 234 236 237 238 240 245 250 248 243 241 242 242 239 240 244 245 248 253 257
221 221 220 220 220 220 221 222 222 222 222 223 223 223 223 223 223 222 222 221 220 219 218 215 214 214 217 222 221 213 211 218 223 225 223 223 224 222 220 220 221 222 223 223 226 228 226 220 221 229 233 233 235 235 232 229 229 229 228 226 227 231 233 234 232 231 233 239 240 238 237 237 238 239 244 250 248 245 243 244 247 246 243 245 247 248 252 258
220 221 221 220 220 220 220 221 222 222 222 223 223 224 224 224 223 223 222 222 221 220 219 217 214 213 215 220 221 215 209 212 217 220 220 220 220 220 219 219 220 221 222 223 225 226 225 223 222 228 234 232 233 234 233 230 229 229 229 227 227 230 232 232 232 232 234 239 245 243 238 237 238 235 239 248 251 249 248 248 251 253 249 248 249 248 248 253
220 221 221 221 220 220 220 220 221 222 222 223 223 224 224 224 224 223 223 223 222 221 220 218 215 213 214 217 218 216 212 208 211 215 214 214 215 216 218 218 219 220 221 222 224 224 224 223 223 228 233 232 231 234 234 231 229 228 230 229 227 229 231 232 233 235 237 241 245 245 238 234 236 234 235 244 253 253 250 249 250 254 255 252 252 252 249 249
220 220 221 221 221 220 220 220 220 221 222 223 223 224 224 224 224 224 224 224 223 223 221 219 217 213 213 215 214 215 216 211 208 209 208 210 213 216 218 218 219 220 220 221 221 222 222 221 221 226 234 233 231 233 233 230 228 229 230 230 228 228 229 231 233 235 240 243 245 244 238 231 234 236 234 238 248 252 250 248 246 249 254 254 254 255 254 252
221 220 221 221 222 221 221 220 220 220 221 222 223 224 224 224 225 225 224 224 224 223 223 221 219 216 214 214 213 214 217 217 210 203 204 207 211 217 219 220 220 220 222 222 221 221 221 220 220 224 230 229 227 228 230 229 227 228 229 229 229 228 227 230 233 234 239 244 243 241 237 229 233 238 237 236 242 250 250 248 245 244 250 254 255 255 254 252
221 221 221 221 221 222 222 221 221 221 221 221 222 223 224 224 225 225 225 225 225 224 223 222 220 218 215 214 214 214 217 220 216 207 203 205 208 214 220 222 221 221 222 223 222 222 221 219 219 223 226 222 221 225 229 230 227 227 230 230 230 229 227 229 233 236 239 242 242 241 238 229 231 239 242 240 239 245 249 249 246 243 244 250 254 256 255 253
219 220 221 221 221 222 222 222 221 221 222 221 222 223 224 224 225 225 226 225 225 225 224 223 222 220 217 214 214 215 217 221 220 215 208 205 204 207 216 222 221 220 222 223 222 222 221 220 218 220 224 219 218 224 228 231 229 227 230 231 230 230 229 229 233 238 240 242 242 242 240 232 232 240 245 245 241 242 246 249 248 244 242 246 250 256 259 258
218 218 219 220 221 222 222 222 222 222 222 222 222 223 223 224 225 226 226 225 225 225 225 224 222 220 218 215 214 215 217 220 222 221 216 210 205 203 208 219 222 221 221 222 222 222 221 220 219 219 223 220 219 225 229 230 231 230 231 233 232 232 232 231 233 236 239 241 241 240 240 236 235 240 243 245 245 243 242 245 248 246 242 243 249 253 256 259
217 218 218 219 220 221 221 222 222 222 222 223 223 223 223 225 226 226 226 225 224 224 225 225 224 223 221 219 217 216 218 221 222 222 222 220 214 209 209 213 218 221 221 221 221 222 221 221 220 219 221 223 224 229 231 231 231 231 232 233 234 233 233 233 234 235 236 239 240 240 239 237 239 242 242 243 245 246 244 242 247 249 244 241 248 252 252 253
217 217 218 218 219 220 220 221 222 222 222 223 223 223 223 224 225 225 225 225 226 225 225 227 228 227 226 223 221 219 219 221 223 222 224 225 222 218 218 216 215 219 221 221 221 222 223 222 221 220 220 225 230 233 233 233 232 232 233 234 235 235 234 235 236 236 236 238 239 241 240 237 239 244 244 243 244 246 246 246 248 250 249 245 246 251 252 250
216 216 216 217 218 219 219 220 221 222 222 223 224 224 224 224 224 224 225 226 226 226 226 226 228 227 225 224 223 220 219 221 223 223 224 227 226 225 224 222 220 220 220 222 223 223 225 224 221 219 221 225 232 235 236 238 238 235 235 236 237 238 238 237 239 238 237 238 239 241 241 238 238 242 244 243 244 246 247 248 248 248 251 251 245 246 252 252
215 215 215 215 216 218 219 220 220 221 222 222 223 224 224 225 226 226 227 228 228 228 227 226 227 227 224 223 223 221 218 219 222 225 225 226 228 229 227 225 225 222 218 222 225 224 224 223 220 220 222 225 230 234 235 238 238 236 235 236 237 238 239 239 239 238 237 238 240 241 243 240 238 240 243 244 246 249 248 246 246 246 250 255 253 245 247 253
213 214 215 214 214 216 217 219 220 221 222 223 223 224 224 225 226 226 228 229 229 229 229 226 226 227 226 224 223 222 219 218 221 224 226 226 227 229 230 228 227 224 219 221 226 226 223 221 219 221 222 224 227 232 233 232 234 235 234 235 236 237 239 240 240 240 238 237 239 241 243 241 238 238 242 244 246 249 249 246 245 246 250 258 261 249 243 251
212 213 214 214 213 214 215 217 219 221 222 224 224 224 224 224 225 225 227 229 229 229 229 227 226 226 226 225 223 223 221 219 220 223 225 226 226 227 231 231 231 230 227 223 226 228 223 220 222 224 224 224 226 229 231 231 233 235 235 235 237 237 239 242 243 243 241 238 238 241 243 241 239 238 238 242 245 247 250 249 246 246 251 257 260 252 244 248
209 211 212 212 212 212 213 215 217 219 221 223 223 221 222 223 224 225 226 228 229 229 229 228 226 225 225 225 223 222 223 220 219 222 225 226 227 227 229 232 234 235 232 228 228 228 223 220 222 224 225 226 226 228 231 234 235 236 237 238 239 239 241 243 245 246 245 242 239 241 244 242 239 239 238 240 245 247 249 250 248 248 252 255 257 256 251 248
206 208 209 210 210 210 211 213 215 217 219 221 220 220 221 223 224 226 227 229 229 227 227 227 226 224 223 224 224 221 222 221 217 220 223 224 226 227 227 229 233 235 234 232 231 228 224 222 222 222 224 226 227 227 229 234 236 236 238 240 242 242 244 246 247 248 249 246 243 242 245 244 240 239 241 241 244 247 248 249 250 251 254 256 256 256 254 251
203 204 205 206 206 208 210 213 214 216 219 219 219 219 220 222 224 226 228 231 231 227 226 226 225 224 222 223 225 222 221 221 217 217 221 223 225 226 226 226 229 230 231 231 231 228 225 224 223 223 224 225 226 226 226 231 235 236 236 238 242 242 244 247 248 249 250 249 247 244 245 247 243 238 242 244 244 246 247 249 252 253 254 255 255 256 255 254
201 201 201 202 204 207 210 212 215 218 220 221 221 221 221 223 224 227 229 232 233 228 225 225 224 223 223 222 223 223 222 223 219 215 218 222 224 225 226 226 227 228 229 229 229 227 226 226 225 225 225 226 225 226 227 229 233 235 236 238 241 242 243 247 249 249 249 250 248 244 244 248 246 240 241 245 243 243 245 248 253 256 257 256 255 256 256 256
200 200 201 202 206 209 212 215 218 222 223 222 222 222 223 225 225 227 229 231 232 229 225 224 222 221 221 221 220 221 221 221 221 216 216 221 223 225 226 226 227 228 230 232 231 229 229 228 227 227 228 227 227 228 229 231 233 235 238 239 240 242 243 245 247 248 249 249 248 246 246 249 248 242 238 241 243 244 246 247 250 255 260 262 260 257 257 256
201 203 206 209 212 215 218 221 222 224 223 222 222 221 222 223 222 222 224 227 229 229 226 224 222 220 219 218 218 219 218 218 219 216 216 219 222 225 226 227 227 228 230 232 233 232 230 230 231 231 229 228 230 232 233 235 237 237 239 239 238 241 243 245 247 249 251 249 248 248 249 249 247 240 233 235 240 244 248 251 253 254 256 260 261 260 259 258
208 211 213 215 217 220 223 226 226 224 222 220 219 218 217 217 218 217 219 224 225 225 226 224 221 220 219 218 217 218 216 215 216 216 216 219 222 224 226 226 226 227 229 230 232 233 231 231 232 232 230 230 233 234 235 237 239 240 241 240 239 241 243 245 247 249 249 247 247 248 249 247 244 240 235 232 235 241 248 254 256 254 254 255 258 259 260 260
215 217 218 220 222 223 224 225 223 221 220 218 215 214 213 212 214 215 215 219 222 221 222 224 221 219 219 218 217 218 216 213 214 215 216 218 221 223 225 226 225 225 227 229 230 232 233 233 234 232 230 231 233 235 235 235 236 238 239 239 239 240 242 243 245 246 247 246 246 248 249 247 242 243 247 242 237 240 245 252 255 255 256 257 257 257 257 259
218 219 220 221 221 220 220 217 216 215 216 216 214 212 211 209 211 212 210 214 219 218 218 221 221 218 218 218 216 217 216 213 212 213 215 218 220 221 223 225 227 227 227 229 230 231 233 234 234 234 233 232 233 235 235 235 234 234 236 237 237 238 240 241 242 243 244 245 246 249 252 248 242 245 252 251 245 242 245 250 253 255 257 257 257 257 255 255
218 218 217 215 214 213 212 210 209 209 210 213 212 210 209 209 209 208 207 209 215 216 213 217 220 218 217 218 216 215 213 210 210 212 214 217 218 220 221 222 225 227 226 228 231 232 234 235 234 234 235 236 236 237 237 237 238 238 239 241 240 240 241 242 244 245 246 248 250 253 254 249 243 244 250 253 251 248 250 252 250 251 254 255 256 256 255 253
210 209 208 206 205 204 204 204 204 202 204 207 206 205 206 207 207 206 204 206 211 212 210 212 217 217 216 217 215 213 211 208 208 211 214 217 218 218 219 220 221 224 224 225 228 229 231 235 236 236 237 238 238 238 238 236 235 236 237 239 240 242 243 245 247 248 249 250 249 250 250 247 244 242 246 251 253 252 252 253 252 251 251 254 256 257 257 256
200 200 199 198 196 194 195 198 197 197 200 200 198 201 205 205 205 204 201 203 209 211 210 211 214 215 215 215 214 211 209 207 208 210 212 217 219 218 218 219 221 222 223 223 226 227 228 232 235 235 235 236 236 236 237 235 235 235 235 235 237 240 241 242 244 245 246 247 246 246 245 245 245 244 243 249 254 256 254 252 253 253 251 253 256 257 258 259
190 191 190 189 187 186 189 191 193 194 195 196 195 198 202 203 203 200 197 201 209 213 213 213 214 215 213 214 214 210 206 206 209 211 211 210 214 216 217 219 221 223 222 222 225 227 228 231 233 232 232 232 232 234 235 236 236 237 236 236 237 239 239 239 240 242 243 244 244 244 244 244 245 245 245 249 255 258 258 254 253 254 253 254 255 258 261 261
183 183 182 181 180 183 187 189 193 194 194 196 197 197 199 201 200 197 197 202 209 213 216 216 216 217 214 213 214 211 207 206 209 211 211 207 207 211 214 217 219 222 223 223 226 228 229 232 233 231 230 228 228 230 232 233 234 237 238 238 239 240 241 240 240 242 244 245 244 244 244 245 244 244 246 250 255 259 261 258 254 254 255 255 255 258 260 261
179 180 180 180 182 185 188 189 194 197 196 197 197 196 197 199 200 200 200 203 207 209 212 215 216 217 216 213 213 211 209 208 209 211 212 211 207 205 209 213 215 219 221 224 227 230 232 234 233 231 230 229 228 230 231 231 232 234 235 236 237 239 241 242 243 245 246 248 247 247 247 246 244 245 248 250 252 256 259 258 255 253 255 256 256 257 259 260
177 179 180 182 184 186 188 189 192 197 197 196 195 193 195 198 201 203 203 203 206 208 208 210 213 215 214 213 212 212 210 209 210 212 213 213 210 204 206 211 211 212 216 220 225 229 231 232 231 230 231 230 230 231 233 234 234 234 234 235 236 236 237 239 240 241 243 245 246 246 246 244 243 244 246 248 251 253 256 257 257 254 255 257 257 257 258 260
178 181 182 183 183 182 184 186 187 192 195 195 195 195 195 198 200 202 204 205 208 211 213 214 215 214 213 212 212 212 211 210 211 213 213 214 212 208 213 219 214 210 212 215 220 224 227 229 230 230 231 232 232 233 235 237 238 238 239 240 240 239 237 237 237 237 238 240 242 244 244 241 241 243 245 247 250 252 255 258 259 257 255 257 258 258 258 258
181 182 182 184 184 182 183 186 186 189 192 194 197 198 197 199 201 201 203 205 206 209 214 218 219 218 215 212 212 211 211 211 211 212 213 214 213 212 220 226 220 216 217 218 221 225 229 231 231 231 232 234 234 234 234 235 235 237 239 239 239 240 239 239 240 241 242 243 244 247 247 244 244 247 249 251 253 253 255 258 258 257 255 255 257 257 257 255
184 183 183 185 186 184 185 189 190 191 193 194 196 199 200 200 202 203 203 201 203 206 211 214 216 220 219 215 212 211 211 211 212 212 212 213 214 214 219 226 224 221 221 222 224 227 229 231 232 232 234 235 235 234 232 233 234 234 234 235 235 238 240 241 242 244 245 245 245 248 249 245 246 249 252 254 255 253 253 255 256 257 256 254 253 254 255 255
184 184 186 187 188 187 189 191 192 194 196 195 194 196 199 200 201 204 205 203 203 205 207 206 204 210 215 216 214 212 211 212 213 213 212 213 215 214 215 220 222 223 223 223 226 228 230 231 231 231 232 232 233 234 231 230 231 232 232 233 235 237 239 239 240 241 243 243 242 245 246 244 245 248 249 250 252 250 248 250 253 256 257 254 250 249 251 253
184 184 185 187 189 191 192 193 194 196 198 197 196 195 197 198 200 202 204 205 205 204 203 199 191 187 197 208 212 213 213 213 213 214 212 212 214 215 216 219 218 218 222 224 226 230 232 233 231 229 230 230 231 233 232 230 231 233 233 233 236 238 239 240 240 241 242 243 243 244 244 243 244 247 248 248 249 248 247 248 251 254 255 254 253 250 249 251
185 186 187 188 190 192 193 193 195 198 199 199 199 198 196 196 198 200 202 204 206 205 202 197 188 179 182 192 202 210 214 214 214 215 213 213 216 217 217 219 217 214 217 220 222 226 231 233 231 230 231 233 235 237 238 235 233 233 234 234 235 236 238 238 238 240 242 243 244 244 244 244 244 247 249 250 250 249 247 246 249 251 252 254 256 256 254 254
185 187 189 191 191 192 192 191 192 194 196 198 199 199 199 197 197 199 202 204 207 209 207 203 195 186 183 184 193 203 211 213 214 216 214 214 217 219 219 218 215 212 213 216 218 223 228 232 232 230 231 233 235 237 238 237 235 233 235 236 235 234 235 234 235 237 238 239 240 241 242 242 242 244 247 249 251 252 251 248 249 250 251 253 255 257 257 257
187 186 187 190 192 192 190 189 190 189 190 192 194 196 197 197 198 199 202 204 207 211 213 211 207 201 194 187 186 195 204 210 213 215 216 216 218 220 219 218 215 212 212 214 216 221 227 230 231 231 231 232 233 235 236 236 234 234 237 238 237 237 238 239 241 241 242 242 243 243 245 244 241 242 247 249 251 253 253 250 250 250 252 253 253 254 255 256
188 187 186 187 189 191 190 189 189 189 190 190 191 192 192 194 196 198 201 204 207 210 213 214 214 214 210 206 199 192 195 203 210 215 217 218 220 220 218 217 216 214 214 215 217 221 226 228 229 231 231 231 233 234 234 235 234 233 235 236 237 239 241 243 245 246 248 250 249 248 249 247 242 242 245 247 249 251 250 248 249 251 251 249 247 249 251 253
189 190 190 189 188 190 192 192 191 191 192 193 194 194 194 195 196 196 198 201 203 208 213 215 217 219 218 218 218 211 197 194 203 213 218 219 221 221 219 217 217 217 218 219 220 222 224 225 227 229 230 231 232 232 232 233 233 234 234 234 235 238 239 240 241 242 244 248 246 244 246 243 239 240 242 241 245 248 249 248 248 250 248 244 242 246 249 251
191 191 193 194 192 192 193 194 195 195 195 196 197 198 199 199 199 199 199 199 200 203 208 211 215 218 219 220 221 222 217 203 195 202 212 219 223 223 220 218 219 222 221 220 222 225 225 225 225 226 229 231 231 232 232 232 234 235 235 234 235 236 237 238 239 240 244 248 247 245 243 239 238 242 243 243 244 247 250 250 250 251 251 249 246 247 249 251
194 193 194 196 197 197 196 196 197 198 199 199 199 199 201 203 204 204 203 203 203 202 204 207 210 214 218 220 221 223 225 223 215 206 202 209 218 222 220 219 221 223 222 218 220 224 225 227 226 225 228 229 229 231 233 234 236 237 236 236 237 238 238 239 240 242 246 249 249 248 245 241 243 246 246 246 246 247 249 250 250 252 254 253 250 247 248 251
Height
5642 5647 5652 5658 5664 5669 5675 5681 5685 5690 5696 5701 5706 5711 5716 5721 5727 5733 5738 5745 5752 5756 5761 5764 5767 5771 5773 5776 5780 5784 5788 5793 5797 5803 5809 5813 5814 5817 5819 5822 5825 5827 5831 5833 5834 5836 5840 5842 5843 5846 5848 5850 5852 5855 5857 5859 5861 5862 5864 5866 5867 5867 5868 5869 5869 5872 5877 5878 5877 5877 5879 5881 5880 5881 5882 5882 5883 5884 5885 5887 5888 5889 5889 5889 5889 5889 5889 5889
5635 5640 5646 5651 5657 5663 5669 5674 5680 5685 5690 5695 5701 5706 5711 5716 5721 5727 5733 5739 5747 5752 5756 5760 5763 5766 5769 5771 5775 5779 5783 5788 5793 5801 5807 5808 5811 5814 5816 5819 5822 5824 5828 5831 5833 5834 5837 5839 5841 5843 5845 5847 5849 5852 5854 5857 5859 5860 5861 5864 5865 5866 5866 5867 5869 5872 5875 5875 5875 5876 5878 5880 5879 5880 5880 5881 5882 5883 5884 5886 5887 5888 5889 5888 5888 5888 5888 5888
5628 5633 5639 5645 5651 5656 5662 5668 5674 5679 5685 5690 5695 5701 5706 5711 5716 5721 5727 5733 5741 5747 5751 5755 5758 5761 5765 5767 5771 5774 5779 5783 5790 5799 5803 5804 5809 5812 5813 5817 5819 5821 5825 5828 5830 5831 5834 5837 5838 5840 5842 5844 5846 5848 5851 5854 5856 5858 5859 5862 5864 5865 5865 5866 5868 5871 5873 5874 5874 5874 5877 5879 5878 5878 5879 5880 5880 5881 5883 5884 5885 5886 5887 5886 5886 5888 5887 5887
5621 5627 5633 5638 5644 5650 5656 5662 5667 5673 5679 5684 5690 5695 5701 5706 5711 5716 5722 5728 5735 5742 5747 5751 5754 5757 5760 5764 5767 5770 5774 5778 5787 5797 5797 5800 5805 5808 5811 5814 5816 5819 5821 5825 5827 5829 5831 5835 5837 5838 5840 5841 5843 5845 5848 5851 5854 5856 5858 5860 5862 5862 5863 5865 5867 5870 5872 5873 5873 5873 5876 5877 5875 5876 5878 5879 5879 5880 5882 5882 5883 5884 5885 5885 5885 5886 5886 5887
5614 5620 5626 5632 5638 5644 5649 5655 5661 5667 5673 5679 5684 5690 5696 5701 5706 5711 5717 5722 5729 5736 5742 5746 5749 5752 5755 5760 5763 5766 5769 5773 5785 5792 5791 5795 5800 5803 5807 5810 5813 5816 5818 5822 5824 5826 5829 5832 5835 5835 5837 5840 5842 5844 5847 5850 5852 5854 5856 5858 5859 5860 5862 5865 5866 5868 5870 5871 5872 5872 5873 5873 5873 5876 5877 5878 5878 5879 5880 5880 5882 5882 5883 5884 5884 5885 5886 5886
5607 5613 5620 5626 5631 5637 5644 5649 5655 5661 5667 5673 5679 5684 5690 5695 5701 5706 5711 5717 5723 5730 5736 5742 5745 5747 5751 5756 5759 5761 5763 5768 5780 5787 5786 5790 5795 5798 5803 5806 5809 5812 5815 5818 5820 5824 5828 5829 5831 5832 5835 5838 5841 5843 5846 5848 5850 5852 5854 5856 5857 5859 5861 5864 5865 5865 5867 5869 5870 5870 5871 5871 5872 5874 5876 5877 5877 5878 5878 5879 5881 5880 5881 5883 5883 5884 5885 5885
5599 5606 5613 5619 5625 5631 5637 5643 5649 5655 5661 5667 5673 5679 5685 5691 5696 5700 5706 5711 5717 5723 5730 5736 5740 5742 5746 5750 5753 5754 5757 5765 5776 5783 5783 5786 5791 5794 5798 5801 5805 5808 5811 5815 5817 5821 5825 5826 5828 5831 5834 5837 5839 5841 5843 5845 5847 5849 5851 5853 5855 5857 5860 5862 5862 5863 5864 5866 5867 5868 5869 5870 5871 5873 5875 5875 5876 5877 5876 5877 5879 5880 5880 5881 5882 5883 5884 5884
5592 5599 5606 5613 5619 5625 5631 5638 5644 5649 5656 5661 5668 5674 5679 5685 5690 5695 5701 5706 5712 5717 5724 5730 5734 5738 5741 5745 5748 5749 5754 5764 5772 5776 5779 5782 5787 5789 5793 5798 5801 5804 5807 5811 5814 5817 5820 5822 5825 5829 5832 5835 5837 5839 5840 5842 5844 5846 5849 5851 5852 5855 5858 5860 5860 5860 5861 5864 5865 5866 5867 5869 5870 5872 5874 5874 5875 5876 5876 5876 5877 5878 5878 5879 5880 5881 5883 5883
5585 5592 5600 5606 5613 5619 5625 5632 5638 5644 5650 5656 5662 5668 5674 5680 5685 5691 5695 5701 5706 5711 5718 5724 5729 5734 5736 5738 5740 5744 5756 5766 5767 5771 5776 5779 5782 5786 5790 5795 5797 5800 5803 5806 5810 5813 5816 5819 5823 5826 5829 5831 5833 5835 5838 5839 5842 5845 5847 5848 5850 5852 5855 5857 5858 5857 5858 5861 5863 5864 5866 5868 5869 5871 5873 5873 5874 5875 5874 5874 5875 5877 5877 5878 5879 5880 5881 5882
5579 5586 5593 5600 5607 5613 5619 5625 5632 5638 5644 5650 5656 5662 5668 5674 5680 5686 5690 5696 5701 5706 5712 5717 5723 5729 5732 5732 5735 5744 5758 5762 5761 5766 5772 5774 5777 5782 5787 5791 5794 5796 5799 5802 5806 5810 5813 5817 5820 5823 5825 5827 5830 5832 5835 5837 5840 5842 5843 5845 5848 5849 5852 5855 5855 5855 5857 5859 5860 5862 5864 5866 5868 5870 5872 5871 5871 5872 5872 5872 5874 5876 5876 5877 5878 5878 5880 5881
5572 5579 5586 5593 5600 5606 5613 5619 5625 5632 5638 5644 5650 5656 5662 5668 5674 5680 5685 5690 5695 5701 5705 5710 5717 5723 5727 5727 5731 5746 5756 5757 5758 5761 5765 5769 5773 5778 5783 5786 5789 5792 5795 5798 5802 5806 5810 5813 5817 5819 5821 5823 5826 5829 5832 5834 5837 5838 5839 5842 5844 5845 5848 5851 5852 5853 5854 5856 5857 5860 5862 5864 5866 5869 5870 5868 5868 5870 5871 5872 5873 5875 5876 5876 5877 5877 5878 5879
5564 5571 5578 5585 5593 5600 5607 5613 5619 5626 5632 5638 5644 5650 5656 5662 5668 5674 5680 5685 5690 5695 5699 5705 5710 5716 5721 5721 5729 5744 5750 5750 5753 5755 5758 5763 5767 5772 5777 5779 5783 5787 5791 5794 5798 5802 5806 5809 5813 5816 5818 5820 5822 5825 5829 5831 5833 5835 5835 5838 5841 5841 5843 5847 5849 5850 5851 5853 5856 5858 5860 5863 5865 5867 5867 5865 5866 5868 5870 5872 5873 5874 5875 5876 5876 5876 5877 5878
5557 5564 5571 5578 5586 5593 5600 5607 5613 5620 5626 5632 5638 5644 5649 5656 5662 5669 5674 5679 5684 5689 5694 5699 5703 5709 5712 5714 5726 5736 5739 5742 5745 5749 5754 5757 5760 5765 5769 5773 5777 5780 5784 5789 5793 5797 5801 5804 5808 5811 5814 5816 5817 5820 5825 5827 5829 5832 5832 5835 5837 5838 5840 5844 5846 5847 5848 5851 5854 5855 5857 5862 5864 5864 5864 5864 5864 5866 5868 5870 5871 5872 5873 5874 5875 5875 5876 5877
5551 5557 5564 5572 5579 5587 5594 5601 5607 5614 5620 5626 5632 5638 5643 5649 5656 5662 5669 5674 5678 5683 5688 5691 5695 5700 5702 5709 5721 5727 5732 5735 5736 5743 5749 5751 5756 5760 5763 5768 5772 5776 5780 5782 5785 5790 5794 5799 5803 5806 5809 5811 5812 5816 5820 5823 5826 5828 5829 5831 5832 5834 5838 5842 5843 5844 5846 5849 5852 5852 5854 5860 5861 5860 5861 5862 5862 5863 5866 5868 5869 5870 5871 5872 5873 5874 5875 5875
5545 5551 5558 5565 5573 5580 5588 5594 5601 5608 5614 5620 5626 5632 5637 5643 5650 5656 5662 5667 5672 5677 5681 5684 5688 5691 5695 5706 5717 5721 5725 5727 5730 5739 5743 5747 5752 5756 5761 5766 5769 5774 5775 5776 5780 5784 5788 5793 5798 5801 5804 5805 5807 5811 5814 5818 5822 5824 5824 5826 5829 5832 5837 5839 5838 5840 5844 5846 5848 5848 5851 5858 5858 5857 5858 5859 5860 5861 5863 5865 5866 5868 5869 5870 5871 5872 5873 5874
5539 5545 5553 5560 5567 5574 5581 5588 5595 5601 5608 5614 5619 5625 5631 5637 5643 5649 5655 5660 5665 5668 5672 5676 5681 5685 5692 5702 5711 5716 5717 5720 5728 5733 5737 5742 5748 5753 5759 5762 5765 5768 5769 5772 5776 5779 5783 5788 5792 5796 5799 5800 5803 5806 5809 5813 5817 5819 5821 5823 5827 5830 5834 5835 5835 5838 5841 5842 5844 5845 5848 5855 5856 5854 5855 5857 5859 5859 5860 5862 5863 5865 5866 5868 5869 5870 5871 5872
5533 5540 5547 5554 5561 5568 5574 5582 5589 5596 5602 5607 5613 5619 5625 5631 5637 5642 5646 5651 5656 5660 5664 5669 5675 5680 5685 5693 5702 5708 5711 5716 5723 5727 5732 5739 5744 5750 5754 5756 5759 5762 5764 5767 5770 5774 5779 5783 5788 5792 5794 5795 5798 5801 5804 5808 5813 5816 5818 5820 5823 5826 5830 5833 5834 5837 5838 5839 5842 5842 5844 5851 5853 5852 5852 5854 5856 5857 5858 5859 5860 5862 5864 5865 5866 5868 5869 5870
5527 5534 5541 5548 5555 5562 5569 5575 5582 5589 5595 5600 5607 5613 5618 5623 5627 5630 5634 5641 5647 5652 5655 5659 5664 5667 5673 5685 5695 5702 5709 5712 5718 5723 5728 5734 5739 5744 5749 5753 5755 5756 5758 5761 5765 5770 5773 5778 5783 5785 5789 5792 5794 5798 5801 5806 5810 5813 5814 5817 5821 5824 5828 5831 5833 5834 5835 5835 5838 5839 5841 5847 5850 5849 5850 5851 5853 5854 5856 5856 5857 5859 5861 5863 5864 5866 5867 5868
5522 5528 5535 5543 5549 5556 5563 5569 5576 5583 5588 5593 5598 5603 5607 5610 5614 5618 5624 5631 5635 5640 5644 5649 5656 5662 5674 5689 5696 5703 5709 5709 5712 5718 5722 5728 5733 5738 5744 5748 5750 5749 5751 5755 5760 5764 5767 5773 5775 5778 5786 5792 5794 5796 5800 5804 5807 5809 5811 5815 5818 5821 5824 5827 5829 5830 5832 5831 5833 5835 5837 5843 5846 5846 5848 5849 5849 5851 5852 5854 5855 5857 5859 5861 5862 5863 5864 5866
5516 5523 5531 5537 5544 5551 5557 5564 5570 5576 5581 5584 5588 5591 5594 5598 5603 5609 5617 5624 5629 5636 5644 5651 5659 5669 5681 5691 5695 5701 5706 5705 5708 5713 5718 5724 5728 5733 5737 5741 5744 5743 5744 5751 5757 5761 5763 5765 5768 5778 5787 5792 5793 5795 5797 5799 5802 5805 5808 5811 5814 5817 5821 5824 5825 5827 5829 5829 5830 5831 5833 5839 5844 5844 5845 5845 5845 5848 5850 5852 5854 5855 5856 5857 5860 5861 5861 5863
5512 5519 5525 5532 5539 5546 5552 5559 5564 5569 5573 5577 5580 5582 5588 5596 5602 5611 5620 5624 5629 5636 5642 5648 5656 5664 5675 5683 5688 5695 5699 5700 5705 5710 5715 5720 5723 5725 5728 5734 5736 5736 5742 5750 5753 5755 5756 5757 5767 5780 5786 5788 5790 5792 5794 5796 5799 5803 5806 5808 5811 5813 5817 5820 5821 5823 5826 5826 5827 5828 5829 5835 5840 5841 5842 5842 5842 5845 5849 5850 5851 5852 5852 5854 5857 5859 5859 5860
5508 5514 5521 5528 5534 5541 5548 5554 5558 5563 5565 5568 5572 5577 5589 5601 5608 5617 5623 5622 5627 5633 5637 5644 5649 5656 5667 5675 5680 5685 5689 5694 5699 5703 5709 5714 5715 5717 5723 5728 5730 5734 5742 5745 5744 5746 5746 5754 5770 5780 5781 5783 5785 5787 5789 5791 5794 5799 5802 5804 5806 5809 5812 5814 5816 5819 5821 5822 5823 5825 5825 5830 5836 5838 5839 5840 5840 5843 5845 5846 5847 5849 5849 5851 5854 5857 5857 5857
5503 5510 5517 5523 5531 5537 5543 5548 5553 5555 5556 5561 5568 5579 5594 5602 5606 5611 5612 5612 5620 5623 5627 5637 5644 5652 5662 5667 5671 5677 5683 5690 5693 5697 5702 5706 5709 5714 5718 5722 5727 5733 5737 5736 5738 5740 5745 5760 5774 5776 5775 5777 5779 5781 5783 5786 5789 5793 5797 5799 5802 5806 5807 5809 5811 5813 5816 5819 5820 5821 5821 5826 5832 5834 5836 5837 5838 5839 5840 5842 5844 5846 5847 5849 5851 5853 5854 5855
5499 5506 5513 5520 5527 5532 5538 5543 5544 5545 5551 5559 5570 5584 5594 5596 5597 5601 5603 5607 5610 5613 5619 5629 5638 5647 5653 5657 5665 5672 5678 5685 5690 5693 5697 5701 5706 5710 5713 5719 5725 5728 5729 5733 5737 5739 5751 5766 5770 5769 5770 5771 5772 5775 5777 5781 5785 5788 5793 5796 5799 5802 5804 5805 5807 5808 5811 5814 5816 5818 5817 5821 5827 5830 5832 5834 5834 5836 5838 5838 5841 5843 5844 5846 5847 5849 5852 5854
5496 5502 5509 5516 5522 5528 5533 5534 5534 5542 5550 5557 5570 5582 5585 5585 5591 5595 5599 5600 5602 5607 5612 5618 5627 5634 5641 5649 5656 5664 5671 5678 5685 5690 5693 5697 5702 5708 5712 5716 5719 5720 5725 5731 5735 5740 5750 5758 5759 5762 5763 5763 5767 5771 5775 5779 5782 5785 5790 5794 5797 5800 5801 5802 5803 5803 5806 5809 5812 5815 5814 5816 5823 5826 5829 5831 5831 5833 5835 5835 5837 5840 5841 5843 5844 5846 5849 5851
5492 5498 5505 5512 5518 5523 5523 5523 5533 5542 5545 5554 5569 5577 5577 5580 5587 5590 5593 5594 5592 5596 5601 5607 5616 5624 5635 5643 5647 5658 5665 5669 5679 5685 5688 5693 5700 5706 5709 5710 5713 5716 5723 5729 5731 5736 5742 5748 5753 5754 5754 5758 5763 5767 5773 5777 5779 5782 5789 5793 5795 5797 5798 5798 5800 5800 5800 5804 5809 5812 5811 5812 5818 5824 5826 5828 5828 5830 5832 5832 5834 5837 5837 5839 5841 5843 5845 5847
5488 5495 5501 5507 5511 5514 5516 5524 5535 5537 5541 5556 5567 5570 5571 5576 5582 5585 5588 5584 5577 5584 5595 5601 5609 5620 5633 5639 5645 5655 5656 5660 5673 5678 5681 5689 5695 5700 5701 5704 5709 5713 5719 5723 5723 5727 5735 5742 5745 5746 5750 5754 5757 5763 5771 5774 5775 5780 5788 5791 5791 5793 5794 5793 5795 5796 5796 5799 5804 5809 5810 5808 5813 5822 5824 5824 5826 5827 5829 5830 5831 5833 5834 5835 5837 5839 5841 5843
5485 5491 5496 5502 5506 5510 5518 5525 5528 5531 5544 5558 5563 5565 5568 5572 5578 5580 5578 5570 5564 5576 5590 5594 5604 5619 5627 5632 5641 5647 5650 5661 5669 5671 5679 5686 5690 5693 5694 5699 5706 5712 5716 5716 5719 5727 5734 5737 5740 5744 5748 5750 5756 5764 5768 5770 5772 5777 5783 5786 5787 5787 5788 5789 5790 5792 5792 5793 5797 5804 5808 5806 5808 5818 5823 5821 5822 5824 5826 5828 5828 5829 5831 5832 5834 5835 5837 5839
5482 5487 5493 5498 5502 5508 5513 5517 5522 5532 5543 5550 5553 5558 5562 5567 5571 5571 5565 5557 5558 5573 5585 5590 5601 5610 5613 5621 5632 5637 5646 5657 5662 5668 5678 5681 5682 5686 5689 5696 5705 5709 5711 5713 5720 5727 5729 5734 5740 5741 5742 5748 5756 5760 5761 5765 5768 5772 5776 5780 5782 5781 5783 5785 5784 5786 5788 5788 5792 5800 5806 5804 5802 5811 5819 5818 5819 5823 5824 5825 5825 5827 5828 5829 5830 5832 5833 5834
5479 5484 5489 5492 5496 5501 5506 5511 5521 5528 5534 5539 5545 5550 5555 5558 5558 5556 5549 5545 5556 5572 5579 5585 5593 5598 5604 5615 5624 5631 5640 5648 5655 5666 5672 5673 5678 5682 5686 5695 5701 5702 5705 5709 5715 5718 5723 5731 5731 5730 5735 5745 5750 5752 5756 5760 5762 5766 5769 5773 5776 5777 5779 5781 5781 5783 5783 5784 5790 5797 5801 5802 5798 5803 5814 5816 5818 5821 5822 5823 5824 5825 5826 5826 5826 5828 5829 5830
5475 5480 5484 5487 5492 5497 5501 5509 5517 5522 5526 5532 5536 5540 5546 5546 5544 5541 5537 5543 5560 5568 5570 5577 5585 5592 5601 5610 5618 5626 5635 5643 5652 5659 5663 5669 5674 5676 5680 5685 5689 5694 5697 5701 5706 5711 5717 5720 5718 5724 5735 5740 5741 5746 5750 5752 5756 5761 5763 5767 5772 5774 5776 5778 5778 5779 5779 5781 5788 5791 5794 5798 5796 5797 5808 5815 5818 5819 5820 5820 5821 5821 5821 5822 5824 5825 5826 5826
5471 5475 5479 5483 5489 5493 5498 5505 5512 5517 5521 5524 5527 5531 5534 5534 5530 5529 5536 5549 5556 5557 5563 5573 5579 5589 5598 5607 5616 5624 5632 5639 5646 5652 5658 5664 5667 5669 5673 5675 5681 5686 5688 5692 5700 5706 5711 5712 5716 5724 5729 5731 5735 5739 5742 5745 5751 5754 5756 5762 5767 5769 5771 5772 5772 5774 5775 5779 5783 5784 5786 5792 5795 5797 5803 5811 5815 5816 5816 5817 5817 5817 5818 5819 5820 5822 5823 5823
5466 5470 5474 5479 5484 5488 5493 5500 5505 5510 5514 5516 5519 5522 5524 5522 5518 5524 5539 5548 5547 5552 5564 5571 5578 5589 5595 5600 5609 5618 5628 5637 5643 5649 5655 5659 5662 5665 5670 5674 5680 5684 5686 5691 5697 5702 5706 5709 5712 5715 5718 5723 5727 5730 5734 5740 5746 5751 5753 5757 5761 5763 5762 5763 5766 5768 5771 5776 5778 5779 5780 5785 5793 5797 5798 5804 5809 5811 5812 5814 5815 5815 5815 5815 5816 5818 5820 5820
5460 5465 5469 5474 5478 5483 5489 5494 5499 5504 5507 5508 5510 5514 5514 5513 5516 5527 5538 5544 5546 5555 5564 5569 5577 5585 5590 5596 5603 5611 5622 5631 5638 5645 5649 5652 5656 5659 5664 5670 5675 5680 5685 5689 5692 5697 5702 5700 5702 5709 5716 5721 5725 5730 5738 5743 5747 5752 5754 5755 5755 5755 5756 5760 5763 5766 5770 5774 5775 5774 5774 5780 5790 5795 5795 5797 5802 5806 5808 5810 5811 5811 5811 5811 5812 5813 5815 5817
5455 5460 5465 5470 5474 5479 5485 5490 5495 5499 5500 5501 5505 5507 5507 5510 5519 5529 5535 5541 5548 5554 5561 5568 5574 5578 5584 5593 5600 5608 5618 5627 5634 5639 5641 5645 5648 5652 5659 5664 5669 5674 5678 5681 5685 5692 5696 5695 5701 5711 5716 5720 5725 5731 5737 5738 5739 5743 5746 5746 5746 5750 5755 5760 5762 5764 5767 5768 5767 5768 5771 5777 5785 5790 5792 5792 5795 5800 5804 5805 5806 5807 5808 5808 5808 5810 5811 5813
5452 5457 5462 5467 5473 5478 5482 5486 5491 5495 5497 5499 5501 5503 5507 5514 5522 5528 5534 5542 5547 5551 5558 5564 5567 5571 5578 5586 5592 5601 5612 5621 5628 5631 5635 5641 5644 5649 5655 5659 5665 5669 5672 5678 5683 5687 5692 5694 5701 5708 5711 5716 5722 5727 5729 5730 5732 5735 5735 5735 5740 5746 5751 5754 5755 5757 5758 5757 5759 5764 5769 5775 5779 5783 5788 5789 5790 5795 5799 5801 5802 5803 5804 5805 5805 5806 5807 5809
5451 5456 5460 5465 5471 5476 5480 5484 5489 5492 5495 5498 5500 5504 5510 5516 5522 5527 5535 5541 5545 5551 5556 5559 5561 5565 5573 5579 5586 5594 5602 5610 5616 5620 5628 5635 5637 5642 5649 5654 5660 5665 5670 5678 5682 5685 5691 5694 5697 5702 5706 5713 5720 5722 5723 5724 5726 5727 5727 5732 5740 5742 5742 5746 5748 5748 5749 5751 5755 5761 5766 5771 5774 5778 5784 5787 5787 5790 5795 5797 5798 5798 5800 5801 5802 5802 5804 5806
5450 5455 5460 5465 5470 5474 5478 5483 5487 5490 5494 5497 5502 5506 5511 5516 5522 5527 5533 5539 5544 5549 5552 5554 5559 5565 5570 5576 5583 5591 5597 5601 5605 5612 5620 5625 5628 5636 5644 5650 5655 5661 5668 5674 5677 5681 5686 5689 5691 5695 5700 5707 5710 5711 5711 5713 5717 5720 5725 5733 5737 5734 5735 5740 5742 5744 5748 5749 5752 5758 5761 5764 5769 5775 5780 5784 5785 5787 5790 5792 5793 5795 5796 5797 5798 5799 5800 5802
5450 5454 5459 5464 5468 5473 5478 5483 5486 5489 5492 5495 5500 5505 5509 5515 5521 5526 5532 5538 5543 5546 5548 5551 5557 5563 5569 5575 5582 5589 5594 5597 5601 5608 5614 5617 5623 5632 5640 5646 5651 5658 5665 5669 5672 5676 5680 5683 5686 5690 5695 5699 5700 5699 5700 5705 5710 5714 5721 5726 5727 5728 5731 5736 5740 5745 5747 5747 5750 5753 5754 5759 5767 5773 5776 5779 5782 5785 5786 5786 5788 5791 5792 5793 5795 5796 5796 5798
5450 5454 5458 5463 5468 5472 5477 5482 5486 5489 5491 5495 5499 5504 5510 5515 5520 5525 5530 5536 5541 5543 5546 5550 5556 5561 5566 5573 5580 5585 5591 5597 5601 5607 5612 5616 5623 5629 5635 5641 5647 5654 5661 5665 5667 5671 5675 5677 5681 5685 5687 5687 5687 5689 5696 5704 5708 5711 5715 5717 5719 5721 5725 5730 5735 5738 5739 5741 5745 5746 5747 5754 5763 5767 5770 5775 5779 5781 5782 5781 5783 5786 5788 5789 5791 5792 5793 5794
5448 5452 5456 5462 5466 5470 5474 5479 5483 5486 5490 5494 5499 5503 5508 5513 5518 5523 5529 5535 5540 5543 5546 5550 5554 5559 5564 5569 5575 5581 5587 5592 5597 5603 5608 5613 5620 5626 5631 5638 5645 5650 5655 5658 5660 5664 5668 5671 5675 5678 5677 5678 5683 5691 5700 5704 5706 5710 5712 5713 5716 5717 5719 5723 5725 5727 5732 5735 5739 5741 5742 5749 5757 5761 5766 5772 5776 5778 5778 5778 5779 5781 5783 5785 5786 5787 5788 5790
5445 5449 5454 5460 5464 5467 5471 5475 5479 5484 5489 5493 5497 5502 5507 5511 5516 5522 5527 5532 5537 5541 5544 5547 5552 5557 5561 5566 5571 5577 5583 5587 5591 5597 5603 5610 5618 5626 5632 5637 5641 5646 5649 5652 5657 5661 5664 5667 5670 5671 5673 5677 5682 5689 5694 5696 5700 5704 5704 5707 5712 5712 5713 5718 5720 5726 5732 5735 5739 5740 5739 5745 5753 5758 5763 5768 5772 5775 5775 5775 5775 5775 5778 5780 5781 5782 5783 5785
5444 5448 5453 5457 5461 5465 5468 5472 5477 5483 5487 5490 5495 5501 5505 5510 5515 5520 5525 5529 5533 5537 5540 5544 5551 5555 5557 5562 5567 5572 5578 5584 5589 5595 5602 5610 5618 5626 5631 5633 5636 5640 5642 5646 5652 5655 5658 5660 5662 5666 5670 5673 5675 5680 5686 5690 5692 5693 5693 5699 5703 5704 5711 5717 5721 5727 5729 5731 5738 5736 5734 5743 5751 5754 5760 5764 5767 5769 5770 5770 5770 5770 5772 5773 5775 5776 5778 5779
5445 5448 5452 5456 5460 5463 5467 5471 5476 5481 5484 5489 5495 5500 5505 5510 5515 5519 5523 5527 5531 5534 5537 5542 5548 5550 5553 5558 5563 5568 5574 5578 5584 5591 5599 5606 5612 5620 5625 5628 5631 5633 5636 5642 5646 5649 5652 5654 5655 5660 5663 5664 5665 5668 5673 5677 5680 5683 5690 5696 5699 5704 5710 5712 5717 5720 5719 5724 5731 5728 5731 5743 5747 5748 5754 5757 5758 5762 5765 5766 5766 5766 5765 5766 5768 5771 5773 5775
5445 5448 5451 5455 5459 5463 5466 5471 5476 5480 5484 5489 5495 5499 5504 5509 5513 5516 5520 5523 5527 5530 5533 5537 5541 5544 5548 5553 5558 5564 5568 5572 5578 5585 5593 5600 5606 5612 5618 5622 5625 5628 5633 5640 5644 5647 5648 5647 5649 5652 5653 5653 5655 5657 5663 5672 5678 5682 5689 5694 5698 5703 5704 5707 5712 5712 5711 5720 5723 5719 5729 5741 5742 5742 5745 5747 5750 5754 5760 5763 5762 5761 5759 5759 5763 5766 5768 5771
5444 5448 5451 5454 5458 5462 5466 5470 5475 5478 5482 5488 5493 5497 5501 5505 5509 5513 5516 5520 5524 5526 5530 5534 5536 5538 5542 5547 5552 5558 5563 5568 5574 5580 5588 5596 5601 5605 5612 5617 5620 5624 5631 5636 5638 5640 5640 5640 5643 5646 5648 5652 5656 5660 5667 5673 5676 5679 5685 5690 5693 5696 5697 5700 5702 5701 5708 5716 5712 5712 5727 5735 5736 5738 5738 5739 5743 5748 5756 5760 5757 5755 5754 5755 5758 5761 5763 5766
5443 5447 5451 5455 5458 5461 5466 5470 5474 5477 5481 5486 5491 5495 5499 5503 5507 5511 5515 5518 5522 5524 5528 5532 5534 5535 5538 5542 5547 5553 5559 5564 5569 5576 5584 5591 5595 5600 5607 5612 5615 5620 5627 5630 5632 5634 5633 5634 5638 5642 5647 5652 5655 5659 5664 5667 5670 5677 5683 5685 5686 5688 5689 5689 5689 5695 5705 5703 5698 5710 5723 5724 5728 5733 5731 5733 5737 5742 5750 5754 5751 5749 5750 5752 5754 5755 5756 5759
5443 5447 5451 5455 5458 5462 5466 5470 5474 5478 5482 5486 5490 5494 5499 5503 5507 5510 5514 5517 5520 5523 5527 5531 5534 5537 5539 5541 5545 5550 5554 5559 5565 5572 5578 5585 5589 5594 5601 5606 5610 5616 5621 5623 5626 5628 5626 5629 5636 5640 5643 5647 5649 5653 5658 5661 5666 5674 5677 5679 5682 5684 5684 5685 5689 5696 5699 5694 5698 5714 5717 5713 5722 5728 5726 5730 5733 5735 5742 5745 5743 5744 5745 5746 5748 5748 5749 5752
5442 5445 5448 5453 5458 5462 5466 5469 5472 5476 5481 5485 5489 5494 5498 5502 5505 5508 5512 5515 5519 5523 5526 5531 5536 5539 5541 5542 5544 5547 5552 5556 5562 5567 5574 5580 5584 5589 5597 5601 5605 5610 5614 5617 5621 5621 5621 5626 5632 5634 5638 5641 5642 5647 5652 5655 5659 5664 5667 5672 5676 5678 5681 5685 5689 5694 5695 5692 5700 5711 5708 5708 5719 5723 5724 5728 5727 5726 5732 5735 5736 5738 5738 5738 5740 5740 5743 5746
5440 5444 5448 5452 5456 5460 5465 5468 5471 5475 5479 5484 5488 5492 5496 5499 5502 5506 5510 5514 5519 5522 5526 5531 5535 5537 5540 5542 5543 5545 5550 5554 5559 5564 5570 5576 5580 5586 5593 5596 5600 5604 5608 5612 5614 5615 5616 5621 5626 5629 5632 5633 5635 5641 5646 5648 5651 5655 5659 5664 5668 5670 5674 5678 5682 5687 5687 5687 5696 5703 5700 5705 5715 5717 5718 5722 5720 5720 5724 5727 5730 5730 5729 5731 5733 5735 5738 5741
5438 5442 5447 5451 5454 5457 5462 5466 5471 5475 5479 5482 5486 5489 5492 5495 5499 5503 5508 5512 5517 5521 5525 5528 5529 5530 5533 5536 5540 5544 5547 5551 5555 5560 5566 5571 5575 5580 5585 5589 5593 5597 5602 5606 5608 5609 5612 5616 5620 5623 5623 5624 5631 5636 5639 5643 5647 5646 5648 5655 5660 5663 5667 5671 5677 5682 5682 5685 5693 5694 5692 5701 5711 5712 5713 5717 5717 5717 5718 5720 5723 5723 5722 5725 5728 5730 5733 5737
5436 5440 5444 5448 5453 5456 5460 5465 5469 5473 5477 5480 5483 5486 5490 5494 5498 5502 5506 5510 5513 5516 5518 5519 5520 5523 5527 5532 5538 5542 5542 5544 5547 5551 5556 5563 5567 5571 5576 5581 5586 5592 5597 5600 5601 5604 5607 5610 5613 5616 5617 5621 5628 5630 5634 5639 5636 5631 5638 5650 5657 5660 5665 5669 5673 5677 5679 5682 5685 5685 5690 5701 5706 5705 5708 5711 5711 5712 5713 5715 5717 5717 5717 5719 5722 5725 5728 5731